C/2016 N6 ( PanSTARRS )

Japanese version
Home page
Updated on March 25, 2017

---------------------------------------------------------------------

* Profile

Discovery Date July 14, 2016
Magnitude 20.7 mag
Discoverer Pan-STARRS 1 telescope (Haleakala)

* Pictures

* Orbital Elements

Epoch 2018 July 21.0 TT = JDT 2458320.5
T 2018 July 18.24053 TT                                 MPCW
q   2.6692034            (2000.0)            P               Q
z  +0.0004911      Peri.  162.80554     -0.53334199     +0.08479294
 +/-0.0000053      Node   298.97574     +0.61778971     +0.71869446
e   0.9986891      Incl.  105.83199     +0.57782540     -0.69013653
From 223 observations 2016 June 27-2017 Mar. 4, mean residual 0".4.

* Finding Charts

* Magnitudes Graph

        m1 = 7.0 + 5 log d + 10.0 log r

---------------------------------------------------------------------

The orbital elements are published on M.P.E.C. 2017-E59.
The charts are made with StellaNavigator Ver.10 (AstroArts).
The magnitudes graphs are made with Comet for Windows.

---------------------------------------------------------------------

Copyright(C) Seiichi Yoshida (comet@aerith.net). All rights reserved.